ATLAS 5 CENTAUR DEB, 43991

Orbit data source: Space-Track

ATLAS 5 CENTAUR DEB, 43991 is space debris in HEO originally from a launch on Wed, 17 Sep 2014 UTC launched from the Air Force Eastern Test Range (AFETR). Debris objects in space refer to the collection of defunct objects orbiting the Earth. Examples of debris include non-operational satellites, rocket bodies, and fragments generated from explosions, collisions, or faulty payload assembly.

Loading next visibility...
Identifier
43991, 2014-055AW
Orbit
HEO
Country
Flag of USUS
Related business
Flag of USUnited Launch Alliance/Lockheed Martin (US)
Manufacturer
Unknown
Mission
Spacecraft
Bus & Motor
Unknown
Mass
Unknown
Launch date (UTC)
2014-09-17 (12 years ago)
Launch vehicle
Unknown
Launch site
Air Force Eastern Test Range (AFETR)
Object type
Payload
Rocket body
Debris
Shape & HBR
Unknown shape, 1.1 m
Radar Cross Section
Small (<0.1 m²)

Expand to show TLE details & history
Last TLE update: 3 days ago

TLE from 3 days ago
0 ATLAS 5 CENTAUR DEB
1 43991U 14055AW  26117.36489689 -.00000008  00000-0  00000-0 0  9990
2 43991  19.5178 177.6821 4645247 108.4811 306.1622  1.82439563 50394
Epoch: 2026-04-27T08:45Z
TLE epoch observation values (Epoch: 2026-04-27T08:45:27.091Z)
Latitude
Longitude
-168.96101°
Altitude
19,624.218 km
Speed
4.071 km/s
True Right ascension
11h 51m 01s
True Declination
0° 00' 00"
Sunlit
Object was in daylight at epoch
Visualization orbit readout
Latitude
Unknown
Longitude
Unknown
Altitude
Unknown
Speed
Unknown
Apparent Right ascension
Unknown
Apparent Declination
Unknown
Sunlit
N/A
Visualization observer readout
Local Sidereal Time
22:20:16
Azimuth
Unknown
Elevation
Unknown
Doppler factor
Unknown
Orbital elements
Apogee altitude
35,058.208 km
Perigee altitude
8,772.266 km
Semi-major axis
28,293.374 km
Eccentricity
0.46452
Inclination
19.5178°
RAAN
177.6821°
Arg. of periapsis
108.4811°
True anomaly
251.50368°
Mean anomaly
306.1622°
Eccentric anomaly
279.94698°
Mean motion
0.45605 °/min
Orbital period
789.38 mins
BSTAR
0
Loading maneuver chart data...
Computing Atmospheric mass density...

Documentation

Showing up to 5 results
|